Tracking 30986 objects as of 9-Jul-2025
HD Live streaming from Space Station
objects crossing your sky now

COSMOS 2228

Track COSMOS 2228 now!
10-day predictions
COSMOS 2228 is classified as:


NORAD ID: 22286
Int'l Code: 1992-094A
Perigee: 573.2 km
Apogee: 600.9 km
Inclination: 82.5 °
Period: 96.3 minutes
Semi major axis: 6958 km
RCS: 5.331 m2 (large)
Launch date: December 25, 1992
Source: Commonwealth of Independent States (former USSR) (CIS)
Launch site: PLESETSK MISSILE AND SPACE COMPLEX (PKMTR)
Your satellite tracking list
Your tracking list is empty




NASA's NSSDC Master Catalog

Two Line Element Set (TLE):
1 22286U 92094A   25189.86256315  .00001601  00000-0  14066-3 0  9993
2 22286  82.5189 110.5036 0019877  46.4986 313.7883 14.95794583739591
Source of the keplerian elements: AFSPC